Location: Unnamed
(47.6578°N, 23.5640°E)
Time: 21:56:33
(UTC+03:00)

ISS - Pass Details

Date: 03 May 2020
Orbit: 418 x 421 km, 51.6° (Epoch: 08 May)

Event Time Altitude Azimuth Distance (km) Brightness Sun altitude
Exits shadow 04:47:47 19° 250° (WSW) 1,080 -2.3 -11.8°
Maximum altitude 04:50:07 82° 336° (NNW) 427 -3.8 -11.5°
Drops below altitude 10° 04:53:29 10° 66° (ENE) 1,501 0.5 -11.1°
Sets 04:55:36 0° 67° (ENE) 2,368 1.8 -10.8°
